Volver al catálogo

COSMOS 1275 DEB

ActivoPO
NORAD 12700·DEBRIS·🇷🇺 Russia

Lanzado Jun 4, 1981 desde Plesetsk Cosmodrome

Loading…

Próximos Pases (próximas 24 horas)

TLE

ActualizadoSource: Space-Track

Época: Sep 13, 2026, 23:46 UTC

1 12700U 81053AU  26256.99033015  .00000910  00000-0  49256-3 0  9997
2 12700  82.7804 156.7044 0046574 225.1631 134.5757 14.11036747299695

Sigue COSMOS 1275 DEB en tiempo real con AllMySat

Download on the App Store